Flag for Australia Weather past 2 weeks in Rockhampton, Queensland, Australia

Now
75 °F

Passing clouds.


Feels Like: 77 °F
Forecast: 63 / 90 °F
Wind: 8 mph from North

Location: Rockhampton Airport

Current Time: Oct 26, 2014 at 8:21:43 AM

Latest Report: Oct 26, 2014 at 8:00 AM


Visibility: N/A

Pressure: 30.07 "Hg

Humidity: 65%

Dew point: 63 °F

Location of RockhamptonLocation

Historic Weather in Rockhampton — Graph

°F

Rockhampton temperature yesterday

Maximum temperature yesterday: 86 °F (at 1:00 PM)
Minimum temperature yesterday: 61 °F (at 3:30 AM)
Average temperature yesterday: 73 °F

Past Weeks' High & Low Weather Summary

 TemperatureHumidityPressure
High88 °F (Oct 14, 2:30 PM)100% (Oct 25, 6:00 AM)30.27 "Hg (Oct 25, 6:00 AM)
Low50 °F (Oct 16, 5:30 AM)13% (Oct 15, 2:00 PM)29.77 "Hg (Oct 14, 2:00 PM)
Average71 °F60%30.07 "Hg
* Reported Oct 11 7:00 AM — Oct 26 7:00 AM, Rockhampton, Weather by CustomWeather, © 2014

Note: Actual official high and low records may vary slightly from our data, if they occured in-between our weather recording intervals... More about our weather records

Advertising

Rockhampton weather history for previous 24 hours

 ConditionsComfort  
Time TempWeatherWind HumidityBarometerVisibility
7:00 AM
Oct 26
68 °FSunny.3 mph78%30.07 "Hg10 mi
6:30 AM66 °FSunny.3 mph83%30.07 "Hg10 mi
6:00 AM63 °FSunny.2 mph94%30.07 "Hg10 mi
5:30 AM61 °FSunny.No wind94%30.04 "HgN/A
5:00 AM63 °FClear.No wind88%30.04 "HgN/A
4:00 AM63 °FClear.No wind88%30.04 "HgN/A
3:30 AM63 °FClear.3 mph94%30.04 "HgN/A
3:00 AM63 °FClear.3 mph94%30.01 "HgN/A
2:30 AM64 °FClear.3 mph88%30.01 "HgN/A
2:00 AM64 °FClear.3 mph88%30.01 "HgN/A
1:30 AM64 °FClear.5 mph88%30.04 "HgN/A
1:00 AM66 °FClear.3 mph83%30.04 "HgN/A
12:30 AM64 °FClear.2 mph83%30.07 "HgN/A
12:00 AM66 °FClear.5 mph83%30.07 "HgN/A
11:30 PM
Oct 25
66 °FClear.6 mph83%30.07 "HgN/A
11:00 PM68 °FClear.6 mph78%30.07 "HgN/A
10:30 PM68 °FClear.6 mph78%30.09 "Hg10 mi
10:00 PM70 °FClear.7 mph73%30.09 "Hg10 mi
9:30 PM70 °FClear.9 mph73%30.09 "Hg10 mi
9:00 PM70 °FClear.8 mph73%30.09 "Hg10 mi
8:30 PM72 °FClear.5 mph65%30.07 "Hg10 mi
8:00 PM70 °FClear.6 mph69%30.07 "Hg10 mi
7:00 PM73 °FClear.9 mph57%30.04 "Hg10 mi
6:30 PM75 °FClear.8 mph50%30.04 "Hg10 mi
6:00 PM77 °FSunny.9 mph54%30.01 "Hg10 mi
5:30 PM79 °FSunny.9 mph51%30.01 "Hg10 mi
5:00 PM82 °FSunny.13 mph42%30.01 "Hg10 mi
4:30 PM84 °FSunny.14 mph40%29.98 "Hg10 mi
4:00 PM86 °FSunny.10 mph33%29.98 "Hg10 mi
3:30 PM86 °FSunny.7 mph35%29.98 "Hg10 mi
3:00 PM86 °FSunny.7 mph38%29.98 "Hg10 mi
2:30 PM86 °FSunny.8 mph40%30.01 "HgN/A
2:00 PM86 °FSunny.9 mph40%30.01 "HgN/A
1:30 PM86 °FSunny.7 mph40%30.04 "HgN/A
1:00 PM86 °FSunny.5 mph40%30.04 "Hg10 mi
12:30 PM84 °FSunny.6 mph40%30.07 "Hg10 mi
12:00 PM84 °FSunny.5 mph43%30.07 "Hg10 mi
11:30 AM82 °FSunny.7 mph45%30.09 "Hg10 mi
11:00 AM81 °FPassing clouds.6 mph48%30.12 "HgN/A
10:30 AM79 °FPassing clouds.3 mph51%30.12 "HgN/A
10:00 AM79 °FScattered clouds.5 mph51%30.15 "HgN/A
9:00 AM77 °FScattered clouds.6 mph57%30.15 "HgN/A
8:30 AM75 °FScattered clouds.6 mph61%30.15 "HgN/A
8:00 AM73 °FPassing clouds.3 mph69%30.15 "HgN/A
Weather by CustomWeather, © 2014

See weather overviewHow to use our weather pages